Lapse_Rate
7.2 7.0 7.0 6.8 7.0 6.8 6.0 5.6 5.5 5.3 5.0 4.9 5.1 5.4 5.4 5.4 5.5 5.1 5.1 5.4 5.1 5.6 5.4 5.5 5.4 5.4 5.6 5.9 6.1 6.2 6.0 6.0
7.1 7.0 6.9 6.8 6.8 6.5 6.0 5.7 5.5 5.4 5.2 5.0 5.2 5.3 5.3 5.4 5.1 5.1 5.2 5.3 5.3 5.4 5.4 5.5 5.4 5.4 5.5 6.1 6.1 5.9 5.9 5.8
7.1 6.9 6.8 6.9 6.7 6.3 6.0 5.8 5.4 5.6 5.5 5.3 5.2 5.2 5.2 5.2 5.1 5.0 5.0 4.9 5.0 5.1 5.2 5.7 5.4 5.6 5.9 5.8 5.8 5.7 5.8 5.6
7.2 6.9 6.9 6.8 6.7 6.2 6.1 5.8 5.7 5.6 5.4 5.4 5.1 5.1 5.0 5.2 5.0 5.1 5.3 4.9 5.0 5.0 5.1 5.6 5.2 5.7 5.7 5.9 5.7 5.6 5.6 5.3
7.1 6.8 7.0 6.9 6.8 6.4 6.1 5.9 5.9 5.7 5.7 5.3 5.3 5.2 5.2 5.0 5.0 5.0 5.2 4.9 4.8 4.7 5.4 5.4 5.4 5.6 5.5 5.6 5.4 5.4 5.4 5.2
6.6 6.5 6.8 7.0 6.9 6.6 6.2 6.0 6.1 5.8 5.6 5.5 4.9 5.5 5.3 5.4 5.4 5.7 5.7 5.5 5.2 5.4 5.5 5.1 5.0 5.0 5.4 5.0 4.8 5.2 5.2 5.1
6.3 6.5 6.6 7.1 7.0 6.8 6.3 6.1 6.0 5.9 5.5 5.3 5.3 5.5 5.5 5.5 5.8 5.9 6.0 5.8 5.4 5.4 5.2 5.0 5.2 4.8 5.1 4.9 4.9 5.1 5.1 5.1
6.7 6.4 6.6 6.9 7.0 6.8 6.7 6.1 5.9 5.8 5.8 5.5 5.5 5.5 5.3 5.4 5.7 5.8 5.8 5.8 5.5 5.3 5.2 5.3 5.0 5.0 5.1 5.1 5.0 5.2 5.1 5.2
6.7 6.6 6.6 6.7 7.0 6.8 6.8 6.3 6.0 5.9 5.7 5.4 5.4 5.3 5.4 5.4 5.6 5.9 5.9 5.7 5.4 5.3 5.0 5.1 5.1 5.0 4.9 5.1 5.0 5.1 5.2 5.3
6.4 6.9 6.8 6.7 7.0 6.9 6.9 6.7 6.0 5.9 5.7 5.5 5.3 5.2 5.3 5.5 5.7 5.9 5.8 5.6 5.5 5.2 4.9 5.0 4.9 5.0 5.0 5.2 5.1 5.0 5.2 5.5
6.6 6.9 7.0 6.9 6.7 6.9 6.7 6.7 6.3 6.1 6.0 5.5 5.3 5.2 5.4 5.4 5.5 5.6 5.5 5.3 5.0 5.3 5.1 5.5 5.0 5.2 5.4 5.2 5.0 5.1 5.2 5.5
6.9 7.0 7.3 7.0 6.8 6.6 6.7 6.7 6.4 6.2 6.2 5.8 5.5 5.2 5.1 5.0 4.8 4.8 5.1 5.0 5.1 5.2 5.1 5.2 5.0 5.1 5.6 5.4 5.2 5.0 5.2 5.7
7.4 7.1 7.3 7.3 7.1 6.9 6.9 7.0 7.0 6.1 6.0 6.3 5.8 5.3 4.8 5.0 5.0 4.8 4.7 5.4 5.4 5.3 4.9 5.0 5.1 5.4 5.6 5.2 5.0 5.0 5.2 5.5
7.6 7.5 7.6 7.5 7.3 7.2 7.0 6.9 7.0 6.5 6.0 6.1 5.7 5.7 5.2 5.2 5.0 4.8 4.6 5.0 5.2 5.1 5.1 5.8 5.3 5.4 5.6 5.2 5.0 5.2 5.3 5.5
7.5 7.6 7.7 7.7 7.5 7.3 6.9 6.4 6.2 6.5 6.4 6.1 6.0 5.9 5.6 4.9 5.1 4.8 4.5 5.1 5.3 5.2 5.0 5.5 5.7 5.5 5.8 5.4 5.3 5.3 5.2 5.5
7.1 7.0 7.5 7.8 7.4 7.2 7.0 6.7 6.7 7.1 7.1 6.2 6.0 6.2 6.0 5.1 4.9 5.0 4.4 5.0 5.4 4.9 4.8 4.7 5.1 5.5 5.8 5.6 5.3 5.2 5.3 5.6
7.2 6.8 7.0 7.6 7.5 7.1 6.8 6.5 6.1 6.6 6.9 6.1 6.1 5.9 5.6 6.2 5.9 5.6 5.1 5.1 5.0 4.8 5.0 5.0 5.2 5.4 5.6 5.4 5.3 5.1 5.1 5.4
7.3 6.9 6.4 7.3 7.4 7.3 7.2 6.8 6.3 6.5 6.6 6.9 6.6 6.3 6.0 5.8 5.7 5.4 5.6 4.7 4.5 4.8 4.9 5.4 5.6 5.6 5.3 5.4 5.3 5.4 5.1 5.2
7.3 6.9 6.5 6.4 7.2 7.3 7.2 7.4 6.9 7.1 7.1 7.1 7.0 6.5 6.3 5.9 6.6 6.0 5.6 4.9 4.8 4.8 5.6 5.8 6.0 5.7 5.6 5.6 5.5 5.6 5.4 5.2
7.5 7.0 6.6 6.3 6.5 6.6 7.3 7.3 7.2 7.1 7.0 6.9 7.1 6.9 6.8 6.5 6.1 5.6 5.0 5.1 5.1 5.3 6.2 6.2 6.1 6.1 5.8 5.6 5.7 5.4 5.4 5.5
Wind_Speed
11 11 13 15 18 19 23 24 24 26 28 26 24 25 26 26 26 26 23 22 22 18 17 18 15 12 11 17 32 27 22 19
10 10 11 10 13 21 24 25 26 27 25 23 22 20 22 26 28 28 24 21 21 18 17 17 14 9 12 26 28 27 21 20
11 10 9 11 12 19 23 26 27 28 27 22 21 13 17 25 24 26 25 24 22 21 19 17 15 10 18 25 23 20 20 17
11 10 10 12 13 17 18 21 20 20 20 17 15 15 17 19 23 21 17 21 22 20 21 18 13 11 17 19 18 20 18 16
11 10 11 12 10 13 13 15 15 17 19 16 16 16 17 17 18 18 18 19 16 17 16 13 11 11 15 16 20 20 17 16
12 12 12 11 10 7 11 8 13 12 17 20 12 11 12 13 13 15 18 14 12 12 11 13 9 17 19 17 19 18 16 14
12 11 13 12 12 8 9 9 9 15 18 19 13 13 9 14 13 14 15 15 15 11 11 9 10 13 17 19 18 19 17 14
16 15 15 14 11 13 10 9 14 16 15 17 13 19 12 11 10 11 13 14 16 14 11 6 8 13 14 17 17 18 15 15
18 18 17 18 15 11 10 9 15 10 15 16 13 13 17 14 9 8 14 16 15 15 10 9 9 11 9 15 17 17 16 14
19 16 18 18 16 12 9 10 12 11 13 14 11 9 22 15 9 10 16 17 12 8 7 7 8 8 8 8 12 15 15 15
20 18 20 18 17 13 11 12 10 13 15 14 13 11 9 16 10 14 16 11 7 8 8 10 8 8 7 6 7 8 13 14
23 16 20 17 13 11 10 10 10 14 12 12 13 11 8 4 8 12 12 8 8 9 11 7 10 9 8 6 4 3 6 6
22 19 18 15 12 11 11 11 10 10 10 18 17 14 18 13 4 5 7 9 11 12 11 14 7 9 7 5 3 4 3 2
23 23 20 16 12 12 11 11 9 11 11 16 22 21 16 8 6 10 7 9 13 12 12 8 5 9 5 3 2 2 3 3
15 22 23 19 18 11 8 9 8 10 13 13 14 21 20 16 7 7 6 9 11 13 13 10 9 7 12 4 3 3 3 3
19 12 23 20 19 17 16 14 11 10 13 13 11 15 16 24 23 10 9 9 12 11 12 10 11 12 6 5 3 5 4 2
17 14 16 20 20 20 17 15 11 10 11 16 15 13 19 20 20 5 5 8 10 14 13 11 11 11 8 7 3 3 3 3
18 19 16 18 22 21 22 21 16 13 15 13 14 13 13 16 18 12 8 14 18 16 15 15 12 11 8 6 4 4 4 3
17 18 17 20 17 22 21 19 21 20 19 17 18 14 13 19 17 13 7 9 15 14 14 14 14 12 12 9 5 4 4 3
21 20 20 18 13 13 20 22 14 15 18 15 15 16 18 21 19 16 13 16 13 14 11 11 12 11 13 12 7 7 4 4
Wind_Direction
127 138 146 147 151 152 143 140 141 138 135 137 133 129 129 131 128 128 129 132 138 154 152 142 143 136 119 92 114 109 108 108
139 144 140 144 152 148 145 144 143 138 131 134 127 123 127 132 134 137 142 142 154 157 149 152 142 138 93 126 115 102 105 103
144 148 148 142 139 153 147 145 144 140 131 133 131 136 146 144 147 151 154 158 163 157 153 158 147 129 113 125 108 110 108 110
153 152 149 142 146 151 148 149 147 148 144 145 149 156 152 153 148 150 164 169 165 150 158 158 149 128 112 110 114 108 107 110
159 156 144 143 147 151 152 151 153 152 154 159 158 147 146 144 151 169 169 157 154 147 152 163 159 130 115 107 108 106 111 114
166 156 146 142 151 158 158 158 162 155 162 159 156 153 152 158 160 159 158 155 147 147 165 179 166 129 117 112 112 111 115 118
169 158 147 148 154 157 155 161 161 156 160 163 150 153 151 157 158 153 155 159 161 161 173 185 130 123 117 118 118 120 126 130
174 171 149 149 160 164 159 156 153 154 164 169 153 154 148 155 153 159 162 161 167 170 179 150 127 124 117 124 126 123 129 128
176 167 153 152 159 164 162 155 155 162 167 162 146 154 159 157 160 164 170 166 173 173 170 131 123 129 118 125 124 130 134 133
173 169 159 154 159 162 167 161 158 163 164 159 146 162 159 159 168 172 179 171 167 159 141 127 130 133 122 127 132 139 144 149
172 165 162 154 160 161 169 163 157 161 165 172 167 156 151 162 175 180 181 165 149 138 139 134 133 127 124 117 131 147 155 160
174 163 160 152 158 159 166 169 163 164 164 171 179 168 155 182 171 185 168 146 135 138 137 134 134 129 114 82 62 90 139 166
172 161 163 149 154 166 169 173 162 160 159 169 163 181 197 201 168 186 161 148 146 148 141 138 113 131 108 77 38 25 19 352
169 168 166 167 161 167 173 174 167 163 164 167 178 193 226 187 162 200 178 148 155 148 152 142 122 162 129 115 129 350 309 281
190 166 167 171 162 145 167 161 161 167 172 177 183 183 184 209 232 216 176 154 163 159 163 160 155 186 164 141 150 193 148 222
346 219 168 169 164 157 164 176 170 171 176 178 181 190 163 191 213 244 188 159 163 170 172 170 162 170 186 230 187 145 169 171
339 319 200 170 173 170 170 172 176 160 174 174 182 182 182 192 212 227 192 167 180 177 180 174 173 171 192 195 194 205 139 141
350 344 314 193 179 172 173 169 172 165 171 174 185 186 192 206 209 216 165 184 201 181 176 172 175 178 188 200 193 171 178 145
353 351 332 325 207 181 169 162 169 173 171 178 177 188 192 206 202 215 208 196 180 171 177 178 174 177 189 205 216 198 160 131
352 355 336 334 343 273 184 171 167 178 178 182 184 186 194 198 204 205 205 214 184 171 175 185 183 182 191 202 204 208 175 158